Time,TemperatureF,DewpointF,PressureIn,WindDirection,WindDirectionDegrees,WindSpeedMPH,WindSpeedGustMPH,Humidity,HourlyPrecipIn,Conditions,Clouds,dailyrainin,SoftwareType,DateUTC
2013-09-19 00:00:00,70.1,68.0,29.74,SSE,148,0.0,4.0,93,0.00,,---,0.03,VWS V14.00,2013-09-19 05:00:00,
2013-09-19 00:03:00,70.0,67.9,29.74,NE,55,0.0,2.0,93,0.00,,---,0.00,VWS V14.00,2013-09-19 05:03:00,
2013-09-19 00:05:00,70.0,67.9,29.74,NE,55,0.0,2.0,93,0.00,,---,0.00,VWS V14.00,2013-09-19 05:05:00,
2013-09-19 00:08:00,70.0,67.9,29.74,ENE,69,0.0,3.0,93,0.00,,---,0.00,VWS V14.00,2013-09-19 05:08:00,
2013-09-19 00:10:00,70.0,67.9,29.74,SSE,148,4.0,5.0,93,0.00,,---,0.00,VWS V14.00,2013-09-19 05:10:00,
2013-09-19 00:13:00,70.0,67.9,29.74,SSE,167,0.0,4.0,93,0.00,,---,0.00,VWS V14.00,2013-09-19 05:13:00,
2013-09-19 00:15:00,70.0,67.9,29.74,SSE,167,0.0,4.0,93,0.00,,---,0.00,VWS V14.00,2013-09-19 05:15:00,
2013-09-19 00:18:00,70.0,67.9,29.73,SSE,167,0.0,1.0,93,0.00,,---,0.00,VWS V14.00,2013-09-19 05:18:00,
2013-09-19 00:20:00,70.0,67.9,29.73,South,173,1.0,2.0,93,0.00,,---,0.00,VWS V14.00,2013-09-19 05:20:00,
2013-09-19 00:23:00,69.9,67.8,29.73,South,178,2.0,3.0,93,0.00,,---,0.00,VWS V14.00,2013-09-19 05:23:00,
2013-09-19 00:25:00,69.9,67.8,29.73,South,178,0.0,3.0,93,0.00,,---,0.00,VWS V14.00,2013-09-19 05:25:00,
2013-09-19 00:28:00,69.9,67.8,29.73,SSW,194,2.0,6.0,93,0.00,,---,0.00,VWS V14.00,2013-09-19 05:28:00,
2013-09-19 00:30:00,69.9,67.8,29.73,SSW,194,0.0,6.0,93,0.00,,---,0.00,VWS V14.00,2013-09-19 05:30:00,
2013-09-19 00:33:00,70.0,67.9,29.73,SSE,147,1.0,5.0,93,0.00,,---,0.00,VWS V14.00,2013-09-19 05:33:00,
2013-09-19 00:35:00,70.0,67.9,29.73,SE,135,6.0,6.0,93,0.00,,---,0.00,VWS V14.00,2013-09-19 05:35:00,
2013-09-19 00:38:00,70.1,68.0,29.73,SSE,153,4.0,6.0,93,0.00,,---,0.00,VWS V14.00,2013-09-19 05:38:00,
2013-09-19 00:40:00,70.1,68.0,29.73,SSE,160,0.0,6.0,93,0.00,,---,0.00,VWS V14.00,2013-09-19 05:40:00,
2013-09-19 00:43:00,70.0,67.9,29.73,SSE,165,1.0,6.0,93,0.00,,---,0.00,VWS V14.00,2013-09-19 05:43:00,
2013-09-19 00:45:00,70.1,68.0,29.73,South,173,2.0,6.0,93,0.00,,---,0.00,VWS V14.00,2013-09-19 05:45:00,
2013-09-19 00:48:00,70.0,67.9,29.73,SSE,150,3.0,5.0,93,0.00,,---,0.00,VWS V14.00,2013-09-19 05:48:00,
2013-09-19 00:50:00,70.0,67.9,29.73,SSE,148,0.0,5.0,93,0.00,,---,0.00,VWS V14.00,2013-09-19 05:50:00,
2013-09-19 00:53:00,70.0,67.9,29.73,SSE,162,0.0,5.0,93,0.00,,---,0.00,VWS V14.00,2013-09-19 05:53:00,
2013-09-19 00:55:00,70.0,67.9,29.73,SSE,162,0.0,5.0,93,0.00,,---,0.00,VWS V14.00,2013-09-19 05:55:00,
2013-09-19 00:59:00,70.1,68.0,29.73,SE,143,0.0,3.0,93,0.00,,---,0.00,VWS V14.00,2013-09-19 05:59:00,
2013-09-19 01:00:00,70.1,68.0,29.73,SE,143,0.0,3.0,93,0.00,,---,0.00,VWS V14.00,2013-09-19 06:00:00,
2013-09-19 01:04:00,70.1,68.0,29.73,SW,216,0.0,4.0,93,0.00,,---,0.00,VWS V14.00,2013-09-19 06:04:00,
2013-09-19 01:05:00,70.1,68.0,29.73,SW,215,0.0,4.0,93,0.00,,---,0.00,VWS V14.00,2013-09-19 06:05:00,
2013-09-19 01:09:00,70.1,68.0,29.74,SSW,213,0.0,3.0,93,0.00,,---,0.00,VWS V14.00,2013-09-19 06:09:00,
2013-09-19 01:10:00,70.1,68.0,29.74,SSW,213,0.0,3.0,93,0.00,,---,0.00,VWS V14.00,2013-09-19 06:10:00,
2013-09-19 01:14:00,70.2,68.1,29.74,SE,140,5.0,6.0,93,0.00,,---,0.00,VWS V14.00,2013-09-19 06:14:00,
2013-09-19 01:15:00,70.2,68.1,29.74,SSE,157,1.0,6.0,93,0.00,,---,0.00,VWS V14.00,2013-09-19 06:15:00,
2013-09-19 01:19:00,70.3,68.2,29.74,South,172,2.0,5.0,93,0.00,,---,0.00,VWS V14.00,2013-09-19 06:19:00,
2013-09-19 01:20:00,70.3,68.2,29.74,South,172,0.0,5.0,93,0.00,,---,0.00,VWS V14.00,2013-09-19 06:20:00,
2013-09-19 01:24:00,70.3,68.2,29.74,South,172,0.0,3.0,93,0.00,,---,0.00,VWS V14.00,2013-09-19 06:24:00,
2013-09-19 01:25:00,70.3,68.2,29.74,South,172,0.0,3.0,93,0.00,,---,0.00,VWS V14.00,2013-09-19 06:25:00,
2013-09-19 01:29:00,70.1,68.0,29.74,SSE,148,0.0,4.0,93,0.00,,---,0.00,VWS V14.00,2013-09-19 06:29:00,
2013-09-19 01:30:00,70.1,68.0,29.74,SSE,148,0.0,4.0,93,0.00,,---,0.00,VWS V14.00,2013-09-19 06:30:00,
2013-09-19 01:34:00,70.1,68.0,29.74,South,184,1.0,3.0,93,0.00,,---,0.00,VWS V14.00,2013-09-19 06:34:00,
2013-09-19 01:35:00,70.1,68.0,29.74,South,185,0.0,3.0,93,0.00,,---,0.00,VWS V14.00,2013-09-19 06:35:00,
2013-09-19 01:39:00,69.9,67.8,29.74,SSE,150,0.0,6.0,93,0.00,,---,0.00,VWS V14.00,2013-09-19 06:39:00,
2013-09-19 01:40:00,69.9,67.8,29.74,SSE,149,0.0,6.0,93,0.00,,---,0.00,VWS V14.00,2013-09-19 06:40:00,
2013-09-19 01:44:00,69.9,67.8,29.73,SSE,164,2.0,4.0,93,0.00,,---,0.00,VWS V14.00,2013-09-19 06:44:00,
2013-09-19 01:45:00,69.9,67.8,29.73,SSE,164,2.0,4.0,93,0.00,,---,0.00,VWS V14.00,2013-09-19 06:45:00,
2013-09-19 01:49:00,69.9,67.8,29.74,SSW,198,0.0,0.0,93,0.00,,---,0.00,VWS V14.00,2013-09-19 06:49:00,
2013-09-19 01:50:00,69.9,67.8,29.74,SSW,198,0.0,4.0,93,0.00,,---,0.00,VWS V14.00,2013-09-19 06:50:00,
2013-09-19 01:54:00,69.8,67.7,29.73,South,190,0.0,0.0,93,0.00,,---,0.00,VWS V14.00,2013-09-19 06:54:00,
2013-09-19 01:55:00,69.8,67.7,29.74,South,190,0.0,1.0,93,0.00,,---,0.00,VWS V14.00,2013-09-19 06:55:00,
2013-09-19 01:59:00,69.7,67.6,29.73,South,190,0.0,0.0,93,0.00,,---,0.00,VWS V14.00,2013-09-19 06:59:00,
2013-09-19 02:00:00,69.7,67.6,29.73,South,190,0.0,1.0,93,0.00,,---,0.00,VWS V14.00,2013-09-19 07:00:00,
2013-09-19 02:04:00,69.6,67.5,29.73,South,190,0.0,0.0,93,0.00,,---,0.00,VWS V14.00,2013-09-19 07:04:00,
2013-09-19 02:05:00,69.6,67.5,29.73,South,190,0.0,1.0,93,0.00,,---,0.00,VWS V14.00,2013-09-19 07:05:00,
2013-09-19 02:09:00,69.7,67.9,29.73,South,174,0.0,0.0,94,0.00,,---,0.00,VWS V14.00,2013-09-19 07:09:00,
2013-09-19 02:10:00,69.6,67.8,29.73,South,174,0.0,2.0,94,0.00,,---,0.00,VWS V14.00,2013-09-19 07:10:00,
2013-09-19 02:14:00,69.7,67.9,29.73,South,179,0.0,2.0,94,0.00,,---,0.00,VWS V14.00,2013-09-19 07:14:00,
2013-09-19 02:15:00,69.7,67.9,29.73,South,179,0.0,2.0,94,0.00,,---,0.00,VWS V14.00,2013-09-19 07:15:00,
2013-09-19 02:19:00,69.9,68.1,29.73,SSE,159,1.0,3.0,94,0.00,,---,0.00,VWS V14.00,2013-09-19 07:19:00,
2013-09-19 02:20:00,69.8,68.0,29.73,SSE,159,3.0,4.0,94,0.00,,---,0.00,VWS V14.00,2013-09-19 07:20:00,
2013-09-19 02:24:00,69.9,68.1,29.73,SSE,159,0.0,0.0,94,0.00,,---,0.00,VWS V14.00,2013-09-19 07:24:00,
2013-09-19 02:25:00,69.9,68.1,29.73,SSE,159,0.0,4.0,94,0.00,,---,0.00,VWS V14.00,2013-09-19 07:25:00,
2013-09-19 02:29:00,69.9,67.8,29.72,SSE,158,1.0,1.0,93,0.00,,---,0.00,VWS V14.00,2013-09-19 07:29:00,
2013-09-19 02:30:00,69.9,67.8,29.72,SSE,158,0.0,3.0,93,0.00,,---,0.00,VWS V14.00,2013-09-19 07:30:00,
2013-09-19 02:34:00,69.9,68.1,29.72,SE,138,5.0,6.0,94,0.00,,---,0.00,VWS V14.00,2013-09-19 07:34:00,
2013-09-19 02:35:00,69.9,68.1,29.72,SSW,200,0.0,4.0,94,0.00,,---,0.00,VWS V14.00,2013-09-19 07:35:00,
2013-09-19 02:39:00,70.0,67.9,29.72,SSE,165,4.0,4.0,93,0.00,,---,0.00,VWS V14.00,2013-09-19 07:39:00,
2013-09-19 02:40:00,70.0,67.9,29.72,SSW,209,3.0,6.0,93,0.00,,---,0.00,VWS V14.00,2013-09-19 07:40:00,
2013-09-19 02:44:00,70.1,68.3,29.72,SE,132,0.0,3.0,94,0.00,,---,0.00,VWS V14.00,2013-09-19 07:44:00,
2013-09-19 02:45:00,70.1,68.3,29.73,SE,132,3.0,5.0,94,0.00,,---,0.00,VWS V14.00,2013-09-19 07:45:00,
2013-09-19 02:50:00,70.1,68.3,29.72,SSE,148,3.0,6.0,94,0.00,,---,0.00,VWS V14.00,2013-09-19 07:50:00,
2013-09-19 02:55:00,70.1,68.3,29.72,SSE,160,0.0,1.0,94,0.00,,---,0.00,VWS V14.00,2013-09-19 07:55:00,
2013-09-19 03:00:00,70.1,68.3,29.72,SSE,148,0.0,4.0,94,0.00,,---,0.00,VWS V14.00,2013-09-19 08:00:00,
2013-09-19 03:05:00,70.1,68.0,29.72,SSE,148,0.0,0.0,93,0.00,,---,0.00,VWS V14.00,2013-09-19 08:05:00,
2013-09-19 03:10:00,69.9,67.8,29.72,SSE,148,0.0,1.0,93,0.00,,---,0.00,VWS V14.00,2013-09-19 08:10:00,
2013-09-19 03:15:00,69.8,67.7,29.71,SSE,148,0.0,1.0,93,0.00,,---,0.00,VWS V14.00,2013-09-19 08:15:00,
2013-09-19 03:20:00,69.8,68.0,29.71,SSE,164,4.0,4.0,94,0.00,,---,0.00,VWS V14.00,2013-09-19 08:20:00,
2013-09-19 03:25:00,69.8,68.0,29.72,SSW,206,0.0,1.0,94,0.00,,---,0.00,VWS V14.00,2013-09-19 08:25:00,
2013-09-19 03:30:00,69.8,68.0,29.72,SW,227,0.0,1.0,94,0.00,,---,0.00,VWS V14.00,2013-09-19 08:30:00,
2013-09-19 03:35:00,69.8,68.0,29.72,West,264,0.0,0.0,94,0.00,,---,0.00,VWS V14.00,2013-09-19 08:35:00,
2013-09-19 03:40:00,69.8,68.0,29.72,West,264,0.0,0.0,94,0.00,,---,0.00,VWS V14.00,2013-09-19 08:40:00,
2013-09-19 03:45:00,69.8,68.0,29.73,WSW,255,0.0,1.0,94,0.00,,---,0.00,VWS V14.00,2013-09-19 08:45:00,
2013-09-19 03:50:00,69.8,68.0,29.72,WSW,252,0.0,1.0,94,0.00,,---,0.00,VWS V14.00,2013-09-19 08:50:00,
2013-09-19 03:55:00,69.9,68.1,29.73,South,173,3.0,6.0,94,0.00,,---,0.00,VWS V14.00,2013-09-19 08:55:00,
2013-09-19 04:00:00,70.1,68.3,29.73,SW,234,2.0,2.0,94,0.01,,---,0.01,VWS V14.00,2013-09-19 09:00:00,
2013-09-19 04:05:00,70.3,68.8,29.72,SSW,193,2.0,13.0,95,0.06,,---,0.06,VWS V14.00,2013-09-19 09:05:00,
2013-09-19 04:10:00,70.7,68.9,29.73,SW,233,6.0,7.0,94,0.06,,---,0.06,VWS V14.00,2013-09-19 09:10:00,
2013-09-19 04:15:00,70.9,68.8,29.73,SSE,148,0.0,5.0,93,0.06,,---,0.06,VWS V14.00,2013-09-19 09:15:00,
2013-09-19 04:20:00,70.9,68.8,29.72,SE,142,0.0,4.0,93,0.06,,---,0.06,VWS V14.00,2013-09-19 09:20:00,
2013-09-19 04:25:00,70.7,68.6,29.73,SSE,160,3.0,5.0,93,0.06,,---,0.06,VWS V14.00,2013-09-19 09:25:00,
2013-09-19 04:30:00,70.5,68.1,29.73,SSW,196,2.0,3.0,92,0.06,,---,0.06,VWS V14.00,2013-09-19 09:30:00,
2013-09-19 04:35:00,70.4,68.0,29.72,West,264,0.0,0.0,92,0.07,,---,0.07,VWS V14.00,2013-09-19 09:35:00,
2013-09-19 04:40:00,70.2,68.1,29.71,West,264,0.0,0.0,93,0.07,,---,0.07,VWS V14.00,2013-09-19 09:40:00,
2013-09-19 04:45:00,70.0,67.9,29.71,West,264,0.0,1.0,93,0.07,,---,0.07,VWS V14.00,2013-09-19 09:45:00,
2013-09-19 04:50:00,69.8,67.7,29.71,West,264,0.0,0.0,93,0.11,,---,0.11,VWS V14.00,2013-09-19 09:50:00,
2013-09-19 04:55:00,69.5,67.7,29.71,West,265,0.0,1.0,94,0.11,,---,0.11,VWS V14.00,2013-09-19 09:55:00,
2013-09-19 05:00:00,69.3,67.2,29.71,West,265,0.0,0.0,93,0.11,,---,0.11,VWS V14.00,2013-09-19 10:00:00,
2013-09-19 05:05:00,69.2,67.1,29.71,West,265,0.0,0.0,93,0.05,,---,0.11,VWS V14.00,2013-09-19 10:05:00,
2013-09-19 05:10:00,69.0,66.9,29.71,West,264,0.0,0.0,93,0.05,,---,0.11,VWS V14.00,2013-09-19 10:10:00,
2013-09-19 05:11:00,69.0,67.2,29.71,West,264,1.0,1.0,94,0.05,,---,0.11,VWS V14.00,2013-09-19 10:11:00,
2013-09-19 05:15:00,68.9,67.1,29.71,West,265,0.0,1.0,94,0.06,,---,0.12,VWS V14.00,2013-09-19 10:15:00,
2013-09-19 05:16:00,68.8,67.0,29.71,NNW,330,1.0,1.0,94,0.07,,---,0.13,VWS V14.00,2013-09-19 10:16:00,
2013-09-19 05:20:00,68.8,67.0,29.70,NNW,327,0.0,2.0,94,0.08,,---,0.14,VWS V14.00,2013-09-19 10:20:00,
2013-09-19 05:21:00,68.8,67.0,29.69,North,349,3.0,5.0,94,0.08,,---,0.14,VWS V14.00,2013-09-19 10:21:00,
2013-09-19 05:25:00,68.6,66.8,29.69,NW,320,0.0,5.0,94,0.08,,---,0.14,VWS V14.00,2013-09-19 10:25:00,
2013-09-19 05:26:00,68.7,67.2,29.70,NW,319,0.0,1.0,95,0.08,,---,0.14,VWS V14.00,2013-09-19 10:26:00,
2013-09-19 05:30:00,68.9,67.4,29.71,NW,317,2.0,2.0,95,0.08,,---,0.14,VWS V14.00,2013-09-19 10:30:00,
2013-09-19 05:31:00,69.1,67.6,29.71,NW,312,0.0,3.0,95,0.08,,---,0.14,VWS V14.00,2013-09-19 10:31:00,
2013-09-19 05:35:00,69.3,67.8,29.71,NW,311,1.0,3.0,95,0.08,,---,0.14,VWS V14.00,2013-09-19 10:35:00,
2013-09-19 05:36:00,69.4,67.9,29.71,NW,310,0.0,2.0,95,0.08,,---,0.14,VWS V14.00,2013-09-19 10:36:00,
2013-09-19 05:40:00,69.5,68.0,29.71,ENE,76,0.0,2.0,95,0.08,,---,0.14,VWS V14.00,2013-09-19 10:40:00,
2013-09-19 05:41:00,69.5,68.0,29.71,ENE,76,0.0,0.0,95,0.07,,---,0.14,VWS V14.00,2013-09-19 10:41:00,
2013-09-19 05:45:00,69.5,68.0,29.72,ENE,76,0.0,0.0,95,0.07,,---,0.14,VWS V14.00,2013-09-19 10:45:00,
2013-09-19 05:46:00,69.5,68.0,29.72,ENE,76,0.0,0.0,95,0.07,,---,0.14,VWS V14.00,2013-09-19 10:46:00,
2013-09-19 05:50:00,69.8,68.3,29.72,SE,146,1.0,5.0,95,0.07,,---,0.14,VWS V14.00,2013-09-19 10:50:00,
2013-09-19 05:51:00,69.9,68.4,29.71,SE,146,1.0,2.0,95,0.05,,---,0.14,VWS V14.00,2013-09-19 10:51:00,
2013-09-19 05:55:00,70.2,68.4,29.72,SE,137,0.0,3.0,94,0.05,,---,0.14,VWS V14.00,2013-09-19 10:55:00,
2013-09-19 05:56:00,70.2,68.4,29.72,SE,137,0.0,0.0,94,0.03,,---,0.14,VWS V14.00,2013-09-19 10:56:00,
2013-09-19 06:00:00,70.2,68.4,29.72,SE,137,0.0,1.0,94,0.03,,---,0.14,VWS V14.00,2013-09-19 11:00:00,
2013-09-19 06:01:00,70.2,68.4,29.72,SE,137,0.0,0.0,94,0.03,,---,0.14,VWS V14.00,2013-09-19 11:01:00,
2013-09-19 06:05:00,70.2,68.4,29.72,SE,137,0.0,1.0,94,0.03,,---,0.14,VWS V14.00,2013-09-19 11:05:00,
2013-09-19 06:06:00,70.2,68.4,29.72,South,173,0.0,2.0,94,0.03,,---,0.14,VWS V14.00,2013-09-19 11:06:00,
2013-09-19 06:10:00,70.2,68.4,29.72,South,172,0.0,2.0,94,0.03,,---,0.14,VWS V14.00,2013-09-19 11:10:00,
2013-09-19 06:11:00,70.2,68.4,29.72,South,172,2.0,2.0,94,0.03,,---,0.14,VWS V14.00,2013-09-19 11:11:00,
2013-09-19 06:15:00,70.1,68.3,29.73,South,172,0.0,2.0,94,0.03,,---,0.14,VWS V14.00,2013-09-19 11:15:00,
2013-09-19 06:16:00,70.1,68.3,29.73,South,172,0.0,0.0,94,0.02,,---,0.14,VWS V14.00,2013-09-19 11:16:00,
2013-09-19 06:20:00,70.1,68.3,29.72,South,172,0.0,1.0,94,0.02,,---,0.14,VWS V14.00,2013-09-19 11:20:00,
2013-09-19 06:21:00,70.1,68.3,29.73,SSW,207,0.0,1.0,94,0.00,,---,0.14,VWS V14.00,2013-09-19 11:21:00,
2013-09-19 06:25:00,70.0,68.2,29.73,SSW,207,0.0,2.0,94,0.00,,---,0.14,VWS V14.00,2013-09-19 11:25:00,
2013-09-19 06:26:00,70.0,68.2,29.73,South,186,2.0,3.0,94,0.00,,---,0.14,VWS V14.00,2013-09-19 11:26:00,
2013-09-19 06:30:00,70.0,68.2,29.73,South,189,4.0,6.0,94,0.00,,---,0.14,VWS V14.00,2013-09-19 11:30:00,
2013-09-19 06:31:00,70.0,68.2,29.73,South,190,1.0,4.0,94,0.00,,---,0.14,VWS V14.00,2013-09-19 11:31:00,
2013-09-19 06:35:00,70.0,68.2,29.73,South,173,2.0,7.0,94,0.00,,---,0.14,VWS V14.00,2013-09-19 11:35:00,
2013-09-19 06:36:00,69.9,68.1,29.73,SSW,205,0.0,3.0,94,0.01,,---,0.15,VWS V14.00,2013-09-19 11:36:00,
2013-09-19 06:40:00,69.9,68.1,29.73,South,176,0.0,4.0,94,0.01,,---,0.15,VWS V14.00,2013-09-19 11:40:00,
2013-09-19 06:41:00,69.9,68.1,29.73,South,176,0.0,1.0,94,0.01,,---,0.15,VWS V14.00,2013-09-19 11:41:00,
2013-09-19 06:45:00,69.8,68.0,29.73,South,187,0.0,3.0,94,0.01,,---,0.15,VWS V14.00,2013-09-19 11:45:00,
2013-09-19 06:46:00,69.8,68.0,29.72,SSE,163,0.0,6.0,94,0.01,,---,0.15,VWS V14.00,2013-09-19 11:46:00,
2013-09-19 06:50:00,69.7,67.9,29.73,SSE,163,0.0,6.0,94,0.02,,---,0.16,VWS V14.00,2013-09-19 11:50:00,
2013-09-19 06:51:00,69.7,67.9,29.73,SE,146,0.0,4.0,94,0.02,,---,0.16,VWS V14.00,2013-09-19 11:51:00,
2013-09-19 06:55:00,69.7,67.9,29.72,SSE,157,0.0,5.0,94,0.03,,---,0.17,VWS V14.00,2013-09-19 11:55:00,
2013-09-19 06:56:00,69.7,68.2,29.72,SSE,167,0.0,4.0,95,0.03,,---,0.17,VWS V14.00,2013-09-19 11:56:00,
2013-09-19 07:00:00,69.7,68.2,29.72,SSE,167,0.0,4.0,95,0.03,,---,0.17,VWS V14.00,2013-09-19 12:00:00,
2013-09-19 07:01:00,69.7,68.2,29.73,SSW,197,0.0,4.0,95,0.03,,---,0.17,VWS V14.00,2013-09-19 12:01:00,
2013-09-19 07:05:00,69.6,68.1,29.73,SSE,157,0.0,4.0,95,0.03,,---,0.17,VWS V14.00,2013-09-19 12:05:00,
2013-09-19 07:06:00,69.6,68.1,29.73,SSE,157,1.0,1.0,95,0.03,,---,0.17,VWS V14.00,2013-09-19 12:06:00,
2013-09-19 07:10:00,69.6,68.1,29.73,SSE,157,0.0,1.0,95,0.03,,---,0.17,VWS V14.00,2013-09-19 12:10:00,
2013-09-19 07:11:00,69.6,68.1,29.73,SSE,157,1.0,1.0,95,0.03,,---,0.17,VWS V14.00,2013-09-19 12:11:00,
2013-09-19 07:15:00,69.5,68.0,29.73,SSE,158,0.0,3.0,95,0.03,,---,0.17,VWS V14.00,2013-09-19 12:15:00,
2013-09-19 07:16:00,69.5,68.0,29.73,SSE,158,0.0,1.0,95,0.03,,---,0.17,VWS V14.00,2013-09-19 12:16:00,
2013-09-19 07:20:00,69.5,68.0,29.73,SSE,157,0.0,2.0,95,0.03,,---,0.17,VWS V14.00,2013-09-19 12:20:00,
2013-09-19 07:22:00,69.4,67.9,29.73,SSE,157,0.0,3.0,95,0.03,,---,0.17,VWS V14.00,2013-09-19 12:22:00,
2013-09-19 07:25:00,69.4,67.9,29.73,SSE,158,0.0,4.0,95,0.03,,---,0.17,VWS V14.00,2013-09-19 12:25:00,
2013-09-19 07:27:00,69.4,67.9,29.73,SSE,158,0.0,3.0,95,0.04,,---,0.18,VWS V14.00,2013-09-19 12:27:00,
2013-09-19 07:30:00,69.4,67.9,29.73,SSE,158,0.0,3.0,95,0.04,,---,0.18,VWS V14.00,2013-09-19 12:30:00,
2013-09-19 07:32:00,69.3,67.8,29.73,SSE,158,0.0,0.0,95,0.04,,---,0.18,VWS V14.00,2013-09-19 12:32:00,
2013-09-19 07:35:00,69.3,67.8,29.73,SSE,158,0.0,0.0,95,0.04,,---,0.18,VWS V14.00,2013-09-19 12:35:00,
2013-09-19 07:37:00,69.3,67.8,29.73,SSE,158,0.0,0.0,95,0.04,,---,0.18,VWS V14.00,2013-09-19 12:37:00,
2013-09-19 07:40:00,69.3,67.8,29.73,SSE,157,0.0,0.0,95,0.04,,---,0.18,VWS V14.00,2013-09-19 12:40:00,
2013-09-19 07:42:00,69.2,67.7,29.73,SSE,158,0.0,0.0,95,0.03,,---,0.18,VWS V14.00,2013-09-19 12:42:00,
2013-09-19 07:45:00,69.2,67.7,29.73,SSE,158,0.0,0.0,95,0.03,,---,0.18,VWS V14.00,2013-09-19 12:45:00,
2013-09-19 07:47:00,69.2,67.7,29.73,SSE,157,0.0,0.0,95,0.03,,---,0.18,VWS V14.00,2013-09-19 12:47:00,
2013-09-19 07:50:00,69.2,67.7,29.73,SSE,158,0.0,0.0,95,0.03,,---,0.18,VWS V14.00,2013-09-19 12:50:00,
2013-09-19 07:52:00,69.2,67.7,29.73,SSE,158,0.0,0.0,95,0.02,,---,0.18,VWS V14.00,2013-09-19 12:52:00,
2013-09-19 07:55:00,69.2,67.7,29.73,SSE,157,0.0,0.0,95,0.02,,---,0.18,VWS V14.00,2013-09-19 12:55:00,
2013-09-19 07:57:00,69.2,67.7,29.73,SSE,159,0.0,0.0,95,0.02,,---,0.19,VWS V14.00,2013-09-19 12:57:00,
2013-09-19 08:00:00,69.1,67.6,29.73,SSE,157,0.0,0.0,95,0.02,,---,0.19,VWS V14.00,2013-09-19 13:00:00,
2013-09-19 08:02:00,69.2,68.0,29.73,SSE,157,0.0,1.0,96,0.02,,---,0.19,VWS V14.00,2013-09-19 13:02:00,
2013-09-19 08:05:00,69.1,67.9,29.73,SSE,158,0.0,1.0,96,0.02,,---,0.19,VWS V14.00,2013-09-19 13:05:00,
2013-09-19 08:07:00,69.1,67.9,29.73,SSE,158,0.0,0.0,96,0.02,,---,0.19,VWS V14.00,2013-09-19 13:07:00,
2013-09-19 08:10:00,69.1,67.9,29.73,SSE,158,0.0,0.0,96,0.02,,---,0.19,VWS V14.00,2013-09-19 13:10:00,
2013-09-19 08:12:00,69.2,68.0,29.72,SSE,157,0.0,0.0,96,0.02,,---,0.19,VWS V14.00,2013-09-19 13:12:00,
2013-09-19 08:15:00,69.2,68.0,29.73,SSE,155,4.0,5.0,96,0.02,,---,0.19,VWS V14.00,2013-09-19 13:15:00,
2013-09-19 08:17:00,69.3,68.1,29.73,SSE,159,0.0,4.0,96,0.02,,---,0.19,VWS V14.00,2013-09-19 13:17:00,
2013-09-19 08:20:00,69.4,68.2,29.73,SSE,159,0.0,4.0,96,0.02,,---,0.19,VWS V14.00,2013-09-19 13:20:00,
2013-09-19 08:22:00,69.4,68.2,29.73,SSE,159,0.0,4.0,96,0.02,,---,0.19,VWS V14.00,2013-09-19 13:22:00,
2013-09-19 08:25:00,69.5,68.3,29.73,SSE,159,0.0,4.0,96,0.02,,---,0.19,VWS V14.00,2013-09-19 13:25:00,
2013-09-19 08:27:00,69.5,68.3,29.73,SSE,159,3.0,3.0,96,0.02,,---,0.19,VWS V14.00,2013-09-19 13:27:00,
2013-09-19 08:30:00,69.5,68.3,29.73,SSE,159,0.0,3.0,96,0.02,,---,0.19,VWS V14.00,2013-09-19 13:30:00,
2013-09-19 08:32:00,69.5,68.3,29.74,SSE,159,0.0,2.0,96,0.01,,---,0.19,VWS V14.00,2013-09-19 13:32:00,
2013-09-19 08:35:00,69.5,68.3,29.74,SSE,159,0.0,2.0,96,0.01,,---,0.19,VWS V14.00,2013-09-19 13:35:00,
2013-09-19 08:37:00,69.6,68.4,29.74,SSE,159,0.0,4.0,96,0.01,,---,0.19,VWS V14.00,2013-09-19 13:37:00,
2013-09-19 08:40:00,69.6,68.4,29.74,SSE,159,0.0,4.0,96,0.01,,---,0.19,VWS V14.00,2013-09-19 13:40:00,
2013-09-19 08:42:00,69.6,68.4,29.74,SSE,159,0.0,0.0,96,0.01,,---,0.19,VWS V14.00,2013-09-19 13:42:00,
2013-09-19 08:45:00,69.7,68.5,29.74,SSE,159,0.0,0.0,96,0.01,,---,0.19,VWS V14.00,2013-09-19 13:45:00,
2013-09-19 08:47:00,69.7,68.5,29.74,SSE,159,0.0,1.0,96,0.01,,---,0.19,VWS V14.00,2013-09-19 13:47:00,
2013-09-19 08:50:00,69.8,68.6,29.74,SSE,159,0.0,3.0,96,0.02,,---,0.20,VWS V14.00,2013-09-19 13:50:00,
2013-09-19 08:52:00,69.9,68.7,29.73,SSE,159,0.0,2.0,96,0.03,,---,0.21,VWS V14.00,2013-09-19 13:52:00,
2013-09-19 08:55:00,69.9,68.7,29.74,SSE,159,0.0,2.0,96,0.03,,---,0.21,VWS V14.00,2013-09-19 13:55:00,
2013-09-19 08:57:00,70.0,68.8,29.73,SSE,151,2.0,4.0,96,0.05,,---,0.23,VWS V14.00,2013-09-19 13:57:00,
2013-09-19 09:00:00,70.0,68.8,29.73,SE,128,4.0,5.0,96,0.05,,---,0.23,VWS V14.00,2013-09-19 14:00:00,
2013-09-19 09:02:00,70.0,68.8,29.73,SE,145,3.0,6.0,96,0.05,,---,0.24,VWS V14.00,2013-09-19 14:02:00,
2013-09-19 09:05:00,70.0,68.8,29.72,SSE,153,3.0,7.0,96,0.05,,---,0.24,VWS V14.00,2013-09-19 14:05:00,
2013-09-19 09:07:00,70.0,68.8,29.72,SSE,149,4.0,5.0,96,0.05,,---,0.24,VWS V14.00,2013-09-19 14:07:00,
2013-09-19 09:10:00,70.0,68.8,29.72,South,173,5.0,7.0,96,0.05,,---,0.24,VWS V14.00,2013-09-19 14:10:00,
2013-09-19 09:12:00,69.9,68.7,29.72,SE,144,4.0,15.0,96,0.05,,---,0.24,VWS V14.00,2013-09-19 14:12:00,
2013-09-19 09:15:00,69.9,68.7,29.72,SSE,168,10.0,15.0,96,0.05,,---,0.24,VWS V14.00,2013-09-19 14:15:00,
2013-09-19 09:17:00,70.0,68.8,29.72,SSE,148,6.0,10.0,96,0.05,,---,0.24,VWS V14.00,2013-09-19 14:17:00,
2013-09-19 09:20:00,70.0,68.8,29.72,SSE,148,3.0,10.0,96,0.05,,---,0.24,VWS V14.00,2013-09-19 14:20:00,
2013-09-19 09:22:00,70.0,68.8,29.72,ESE,113,10.0,13.0,96,0.05,,---,0.24,VWS V14.00,2013-09-19 14:22:00,
2013-09-19 09:25:00,70.1,68.9,29.72,SE,144,7.0,13.0,96,0.05,,---,0.24,VWS V14.00,2013-09-19 14:25:00,
2013-09-19 09:27:00,70.1,68.9,29.73,SSE,160,2.0,10.0,96,0.05,,---,0.24,VWS V14.00,2013-09-19 14:27:00,
2013-09-19 09:30:00,70.1,68.9,29.73,SSE,159,3.0,10.0,96,0.05,,---,0.24,VWS V14.00,2013-09-19 14:30:00,
2013-09-19 09:32:00,70.2,69.0,29.73,SSE,160,3.0,7.0,96,0.05,,---,0.24,VWS V14.00,2013-09-19 14:32:00,
2013-09-19 09:35:00,70.2,69.0,29.73,SSE,150,0.0,7.0,96,0.05,,---,0.24,VWS V14.00,2013-09-19 14:35:00,
2013-09-19 09:37:00,70.2,69.0,29.73,SE,126,4.0,5.0,96,0.05,,---,0.24,VWS V14.00,2013-09-19 14:37:00,
2013-09-19 09:40:00,70.2,69.0,29.73,SSE,160,2.0,6.0,96,0.05,,---,0.24,VWS V14.00,2013-09-19 14:40:00,
2013-09-19 09:42:00,70.3,69.1,29.73,SE,124,0.0,7.0,96,0.05,,---,0.24,VWS V14.00,2013-09-19 14:42:00,
2013-09-19 09:45:00,70.3,69.1,29.73,SW,214,5.0,7.0,96,0.05,,---,0.24,VWS V14.00,2013-09-19 14:45:00,
2013-09-19 09:47:00,70.4,69.2,29.74,South,170,0.0,6.0,96,0.05,,---,0.24,VWS V14.00,2013-09-19 14:47:00,
2013-09-19 09:50:00,70.5,69.3,29.74,South,171,0.0,6.0,96,0.05,,---,0.24,VWS V14.00,2013-09-19 14:50:00,
2013-09-19 09:52:00,70.6,69.4,29.74,SE,144,0.0,5.0,96,0.04,,---,0.24,VWS V14.00,2013-09-19 14:52:00,
2013-09-19 09:55:00,70.7,69.5,29.75,SE,144,0.0,5.0,96,0.04,,---,0.24,VWS V14.00,2013-09-19 14:55:00,
2013-09-19 09:57:00,71.0,69.8,29.75,SSE,149,0.0,7.0,96,0.03,,---,0.24,VWS V14.00,2013-09-19 14:57:00,
2013-09-19 10:00:00,71.1,69.9,29.75,SSE,159,2.0,7.0,96,0.03,,---,0.24,VWS V14.00,2013-09-19 15:00:00,
2013-09-19 10:02:00,71.3,70.1,29.75,SE,146,3.0,5.0,96,0.01,,---,0.24,VWS V14.00,2013-09-19 15:02:00,
2013-09-19 10:05:00,71.4,70.2,29.75,SE,146,1.0,5.0,96,0.01,,---,0.24,VWS V14.00,2013-09-19 15:05:00,
2013-09-19 10:07:00,71.5,70.3,29.75,SSE,150,0.0,3.0,96,0.00,,---,0.24,VWS V14.00,2013-09-19 15:07:00,
2013-09-19 10:10:00,71.5,70.0,29.75,SE,141,1.0,3.0,95,0.00,,---,0.24,VWS V14.00,2013-09-19 15:10:00,
2013-09-19 10:12:00,71.4,69.9,29.75,SSE,153,0.0,6.0,95,0.02,,---,0.26,VWS V14.00,2013-09-19 15:12:00,
2013-09-19 10:15:00,71.4,69.9,29.75,SSE,155,0.0,6.0,95,0.03,,---,0.27,VWS V14.00,2013-09-19 15:15:00,
2013-09-19 10:18:00,71.6,70.4,29.74,SE,132,0.0,2.0,96,0.03,,---,0.27,VWS V14.00,2013-09-19 15:18:00,
2013-09-19 10:20:00,71.5,70.0,29.74,SE,131,2.0,2.0,95,0.03,,---,0.27,VWS V14.00,2013-09-19 15:20:00,
2013-09-19 10:23:00,71.6,70.1,29.74,SSE,157,4.0,4.0,95,0.03,,---,0.27,VWS V14.00,2013-09-19 15:23:00,
2013-09-19 10:25:00,71.6,70.1,29.74,SSE,156,0.0,5.0,95,0.03,,---,0.27,VWS V14.00,2013-09-19 15:25:00,
2013-09-19 10:28:00,71.6,70.1,29.74,SE,145,1.0,4.0,95,0.03,,---,0.27,VWS V14.00,2013-09-19 15:28:00,
2013-09-19 10:30:00,71.6,70.1,29.74,SE,145,1.0,4.0,95,0.03,,---,0.27,VWS V14.00,2013-09-19 15:30:00,
2013-09-19 10:33:00,71.7,70.2,29.73,SSE,150,1.0,5.0,95,0.03,,---,0.27,VWS V14.00,2013-09-19 15:33:00,
2013-09-19 10:35:00,71.7,70.2,29.73,SE,132,2.0,5.0,95,0.03,,---,0.27,VWS V14.00,2013-09-19 15:35:00,
2013-09-19 10:38:00,71.8,70.3,29.73,South,182,0.0,5.0,95,0.03,,---,0.27,VWS V14.00,2013-09-19 15:38:00,
2013-09-19 10:40:00,71.9,70.4,29.73,ENE,67,0.0,5.0,95,0.03,,---,0.27,VWS V14.00,2013-09-19 15:40:00,
2013-09-19 10:43:00,72.1,70.6,29.73,South,169,0.0,4.0,95,0.03,,---,0.27,VWS V14.00,2013-09-19 15:43:00,
2013-09-19 10:45:00,72.2,70.7,29.73,SSE,158,3.0,4.0,95,0.03,,---,0.27,VWS V14.00,2013-09-19 15:45:00,
2013-09-19 10:48:00,72.2,70.7,29.73,SE,144,0.0,7.0,95,0.03,,---,0.27,VWS V14.00,2013-09-19 15:48:00,
2013-09-19 10:50:00,72.3,71.1,29.72,SSE,148,5.0,7.0,96,0.03,,---,0.27,VWS V14.00,2013-09-19 15:50:00,
2013-09-19 10:53:00,72.3,70.8,29.72,SE,133,1.0,5.0,95,0.03,,---,0.27,VWS V14.00,2013-09-19 15:53:00,
2013-09-19 10:55:00,72.3,70.8,29.72,SSE,163,4.0,6.0,95,0.03,,---,0.27,VWS V14.00,2013-09-19 15:55:00,
2013-09-19 10:58:00,72.3,70.8,29.72,SSE,160,0.0,6.0,95,0.03,,---,0.27,VWS V14.00,2013-09-19 15:58:00,
2013-09-19 11:00:00,72.3,70.8,29.72,SSE,159,0.0,6.0,95,0.03,,---,0.27,VWS V14.00,2013-09-19 16:00:00,
2013-09-19 11:03:00,72.3,70.8,29.72,SSE,157,4.0,5.0,95,0.03,,---,0.27,VWS V14.00,2013-09-19 16:03:00,
2013-09-19 11:05:00,72.3,70.8,29.72,SSE,153,4.0,5.0,95,0.03,,---,0.27,VWS V14.00,2013-09-19 16:05:00,
2013-09-19 11:08:00,72.4,70.9,29.71,SSE,153,0.0,4.0,95,0.03,,---,0.27,VWS V14.00,2013-09-19 16:08:00,
2013-09-19 11:10:00,72.4,70.9,29.71,SSE,153,0.0,4.0,95,0.03,,---,0.27,VWS V14.00,2013-09-19 16:10:00,
2013-09-19 11:13:00,72.5,71.0,29.71,SSE,155,2.0,6.0,95,0.03,,---,0.27,VWS V14.00,2013-09-19 16:13:00,
2013-09-19 11:15:00,72.5,71.0,29.71,SE,141,3.0,6.0,95,0.03,,---,0.27,VWS V14.00,2013-09-19 16:15:00,
2013-09-19 11:18:00,72.4,70.9,29.71,SSE,158,0.0,6.0,95,0.00,,---,0.27,VWS V14.00,2013-09-19 16:18:00,
2013-09-19 11:20:00,72.4,70.9,29.71,SSE,161,4.0,6.0,95,0.00,,---,0.27,VWS V14.00,2013-09-19 16:20:00,
2013-09-19 11:23:00,72.3,70.8,29.71,SSE,161,1.0,4.0,95,0.00,,---,0.27,VWS V14.00,2013-09-19 16:23:00,
2013-09-19 11:25:00,72.3,70.8,29.71,SSE,162,2.0,4.0,95,0.00,,---,0.27,VWS V14.00,2013-09-19 16:25:00,
2013-09-19 11:28:00,72.3,70.8,29.71,SSE,158,1.0,6.0,95,0.00,,---,0.27,VWS V14.00,2013-09-19 16:28:00,
2013-09-19 11:30:00,72.3,70.8,29.71,SSE,158,3.0,6.0,95,0.00,,---,0.27,VWS V14.00,2013-09-19 16:30:00,
2013-09-19 11:33:00,72.3,70.8,29.70,SSE,157,4.0,6.0,95,0.00,,---,0.27,VWS V14.00,2013-09-19 16:33:00,
2013-09-19 11:35:00,72.3,70.8,29.70,SSE,152,6.0,7.0,95,0.00,,---,0.27,VWS V14.00,2013-09-19 16:35:00,
2013-09-19 11:38:00,72.3,70.8,29.70,SSE,149,0.0,6.0,95,0.00,,---,0.27,VWS V14.00,2013-09-19 16:38:00,
2013-09-19 11:40:00,72.3,70.8,29.70,SSE,149,1.0,6.0,95,0.00,,---,0.27,VWS V14.00,2013-09-19 16:40:00,
2013-09-19 11:43:00,72.4,70.9,29.70,SE,141,4.0,6.0,95,0.00,,---,0.27,VWS V14.00,2013-09-19 16:43:00,
2013-09-19 11:45:00,72.4,70.9,29.70,SSE,148,2.0,6.0,95,0.00,,---,0.27,VWS V14.00,2013-09-19 16:45:00,
2013-09-19 11:48:00,72.5,71.0,29.70,SE,144,4.0,11.0,95,0.00,,---,0.27,VWS V14.00,2013-09-19 16:48:00,
2013-09-19 11:50:00,72.6,71.1,29.70,SE,144,0.0,11.0,95,0.00,,---,0.27,VWS V14.00,2013-09-19 16:50:00,
2013-09-19 11:53:00,72.7,71.2,29.71,ESE,119,4.0,7.0,95,0.00,,---,0.27,VWS V14.00,2013-09-19 16:53:00,
2013-09-19 11:55:00,72.7,71.2,29.71,South,173,1.0,7.0,95,0.00,,---,0.27,VWS V14.00,2013-09-19 16:55:00,
2013-09-19 11:58:00,72.9,71.4,29.72,SSW,211,1.0,4.0,95,0.00,,---,0.27,VWS V14.00,2013-09-19 16:58:00,
2013-09-19 12:00:00,72.9,71.4,29.72,SSW,210,0.0,4.0,95,0.00,,---,0.27,VWS V14.00,2013-09-19 17:00:00,
2013-09-19 12:03:00,73.2,71.7,29.71,SSE,167,1.0,6.0,95,0.00,,---,0.27,VWS V14.00,2013-09-19 17:03:00,
2013-09-19 12:05:00,73.3,71.8,29.71,SSE,163,0.0,6.0,95,0.00,,---,0.27,VWS V14.00,2013-09-19 17:05:00,
2013-09-19 12:08:00,73.6,72.1,29.70,SSE,161,5.0,8.0,95,0.00,,---,0.27,VWS V14.00,2013-09-19 17:08:00,
2013-09-19 12:10:00,73.7,72.2,29.70,SSE,155,5.0,8.0,95,0.00,,---,0.27,VWS V14.00,2013-09-19 17:10:00,
2013-09-19 12:13:00,74.1,72.3,29.71,SSE,150,4.0,7.0,94,0.00,,---,0.27,VWS V14.00,2013-09-19 17:13:00,
2013-09-19 12:15:00,74.2,72.4,29.71,SSE,160,3.0,7.0,94,0.00,,---,0.27,VWS V14.00,2013-09-19 17:15:00,
2013-09-19 12:18:00,74.6,72.4,29.70,SSE,159,1.0,9.0,93,0.00,,---,0.27,VWS V14.00,2013-09-19 17:18:00,
2013-09-19 12:20:00,74.7,72.6,29.70,SE,134,2.0,9.0,93,0.00,,---,0.27,VWS V14.00,2013-09-19 17:20:00,
2013-09-19 12:23:00,75.0,72.5,29.70,SE,126,5.0,12.0,92,0.00,,---,0.27,VWS V14.00,2013-09-19 17:23:00,
2013-09-19 12:25:00,75.0,72.5,29.70,SSE,150,5.0,12.0,92,0.00,,---,0.27,VWS V14.00,2013-09-19 17:25:00,
2013-09-19 12:28:00,75.2,72.4,29.70,SE,144,2.0,11.0,91,0.00,,---,0.27,VWS V14.00,2013-09-19 17:28:00,
2013-09-19 12:30:00,75.2,72.4,29.70,South,176,5.0,11.0,91,0.00,,---,0.27,VWS V14.00,2013-09-19 17:30:00,
2013-09-19 12:33:00,75.5,72.7,29.70,East,98,5.0,7.0,91,0.00,,---,0.27,VWS V14.00,2013-09-19 17:33:00,
2013-09-19 12:35:00,75.5,72.7,29.70,SSE,159,2.0,7.0,91,0.00,,---,0.27,VWS V14.00,2013-09-19 17:35:00,
2013-09-19 12:38:00,75.7,72.6,29.69,SSE,157,4.0,9.0,90,0.00,,---,0.27,VWS V14.00,2013-09-19 17:38:00,
2013-09-19 12:40:00,75.7,72.6,29.69,SSE,161,4.0,9.0,90,0.00,,---,0.27,VWS V14.00,2013-09-19 17:40:00,
2013-09-19 12:43:00,76.2,73.1,29.69,South,180,0.0,5.0,90,0.00,,---,0.27,VWS V14.00,2013-09-19 17:43:00,
2013-09-19 12:45:00,76.4,73.6,29.69,South,180,0.0,5.0,91,0.00,,---,0.27,VWS V14.00,2013-09-19 17:45:00,
2013-09-19 12:48:00,76.9,73.4,29.69,SE,143,7.0,9.0,89,0.00,,---,0.27,VWS V14.00,2013-09-19 17:48:00,
2013-09-19 12:50:00,77.0,73.5,29.69,SSE,156,3.0,9.0,89,0.00,,---,0.27,VWS V14.00,2013-09-19 17:50:00,
2013-09-19 12:53:00,77.6,74.1,29.68,SE,133,3.0,10.0,89,0.00,,---,0.27,VWS V14.00,2013-09-19 17:53:00,
2013-09-19 12:55:00,77.7,73.5,29.68,SE,140,2.0,10.0,87,0.00,,---,0.27,VWS V14.00,2013-09-19 17:55:00,
2013-09-19 12:58:00,78.0,73.5,29.68,SE,128,0.0,6.0,86,0.00,,---,0.27,VWS V14.00,2013-09-19 17:58:00,
2013-09-19 13:00:00,78.1,73.9,29.68,SE,128,0.0,6.0,87,0.00,,---,0.27,VWS V14.00,2013-09-19 18:00:00,
2013-09-19 13:03:00,78.3,73.4,29.68,SE,146,10.0,10.0,85,0.00,,---,0.27,VWS V14.00,2013-09-19 18:03:00,
2013-09-19 13:05:00,78.3,73.4,29.68,SE,145,6.0,10.0,85,0.00,,---,0.27,VWS V14.00,2013-09-19 18:05:00,
2013-09-19 13:08:00,79.3,74.4,29.68,SE,142,5.0,8.0,85,0.00,,---,0.27,VWS V14.00,2013-09-19 18:08:00,
2013-09-19 13:10:00,79.4,74.5,29.68,SE,130,1.0,8.0,85,0.00,,---,0.27,VWS V14.00,2013-09-19 18:10:00,
2013-09-19 13:14:00,80.2,74.6,29.67,SE,138,9.0,12.0,83,0.00,,---,0.27,VWS V14.00,2013-09-19 18:14:00,
2013-09-19 13:15:00,80.3,74.7,29.67,SE,126,10.0,12.0,83,0.00,,---,0.27,VWS V14.00,2013-09-19 18:15:00,
2013-09-19 13:19:00,80.6,74.6,29.67,SSE,157,4.0,12.0,82,0.00,,---,0.27,VWS V14.00,2013-09-19 18:19:00,
2013-09-19 13:20:00,80.6,74.6,29.67,SE,143,3.0,12.0,82,0.00,,---,0.27,VWS V14.00,2013-09-19 18:20:00,
2013-09-19 13:24:00,81.1,74.0,29.67,SSE,163,7.0,14.0,79,0.00,,---,0.27,VWS V14.00,2013-09-19 18:24:00,
2013-09-19 13:25:00,81.1,74.0,29.67,SE,136,6.0,14.0,79,0.00,,---,0.27,VWS V14.00,2013-09-19 18:25:00,
2013-09-19 13:29:00,81.5,74.0,29.66,SSE,159,6.0,11.0,78,0.00,,---,0.27,VWS V14.00,2013-09-19 18:29:00,
2013-09-19 13:30:00,81.5,74.0,29.66,SSE,159,2.0,11.0,78,0.00,,---,0.27,VWS V14.00,2013-09-19 18:30:00,
2013-09-19 13:34:00,81.8,74.3,29.66,South,182,1.0,13.0,78,0.00,,---,0.27,VWS V14.00,2013-09-19 18:34:00,
2013-09-19 13:35:00,81.8,74.3,29.66,SSW,209,3.0,13.0,78,0.00,,---,0.27,VWS V14.00,2013-09-19 18:35:00,
2013-09-19 13:39:00,82.1,73.8,29.66,SSW,208,6.0,14.0,76,0.00,,---,0.27,VWS V14.00,2013-09-19 18:39:00,
2013-09-19 13:40:00,82.1,73.8,29.66,SSW,197,4.0,14.0,76,0.00,,---,0.27,VWS V14.00,2013-09-19 18:40:00,
2013-09-19 13:44:00,82.6,74.3,29.66,SE,145,6.0,11.0,76,0.00,,---,0.27,VWS V14.00,2013-09-19 18:44:00,
2013-09-19 13:45:00,82.6,74.3,29.66,SSE,163,6.0,11.0,76,0.00,,---,0.27,VWS V14.00,2013-09-19 18:45:00,
2013-09-19 13:49:00,82.7,74.4,29.66,SSE,155,6.0,11.0,76,0.00,,---,0.27,VWS V14.00,2013-09-19 18:49:00,
2013-09-19 13:50:00,82.7,74.4,29.66,SSE,155,6.0,11.0,76,0.00,,---,0.27,VWS V14.00,2013-09-19 18:50:00,
2013-09-19 13:54:00,83.0,73.9,29.65,SE,146,2.0,11.0,74,0.00,,---,0.27,VWS V14.00,2013-09-19 18:54:00,
2013-09-19 13:55:00,83.0,73.9,29.65,SE,146,2.0,11.0,74,0.00,,---,0.27,VWS V14.00,2013-09-19 18:55:00,
2013-09-19 13:59:00,83.4,73.0,29.65,South,182,3.0,11.0,71,0.00,,---,0.27,VWS V14.00,2013-09-19 18:59:00,
2013-09-19 14:00:00,83.4,73.0,29.65,South,182,3.0,11.0,71,0.00,,---,0.27,VWS V14.00,2013-09-19 19:00:00,
2013-09-19 14:04:00,83.4,73.0,29.65,SSE,165,5.0,15.0,71,0.00,,---,0.27,VWS V14.00,2013-09-19 19:04:00,
2013-09-19 14:05:00,83.4,73.0,29.65,SSE,165,5.0,15.0,71,0.00,,---,0.27,VWS V14.00,2013-09-19 19:05:00,
2013-09-19 14:09:00,83.5,73.5,29.65,SE,128,5.0,7.0,72,0.00,,---,0.27,VWS V14.00,2013-09-19 19:09:00,
2013-09-19 14:10:00,83.5,73.5,29.65,SE,128,5.0,7.0,72,0.00,,---,0.27,VWS V14.00,2013-09-19 19:10:00,
2013-09-19 14:14:00,83.8,73.8,29.64,South,179,6.0,6.0,72,0.00,,---,0.27,VWS V14.00,2013-09-19 19:14:00,
2013-09-19 14:15:00,83.8,73.8,29.65,South,178,3.0,11.0,72,0.00,,---,0.27,VWS V14.00,2013-09-19 19:15:00,
2013-09-19 14:19:00,84.0,73.6,29.64,SE,126,7.0,10.0,71,0.00,,---,0.27,VWS V14.00,2013-09-19 19:19:00,
2013-09-19 14:20:00,84.0,73.6,29.64,SSE,152,5.0,13.0,71,0.00,,---,0.27,VWS V14.00,2013-09-19 19:20:00,
2013-09-19 14:24:00,84.2,73.8,29.64,South,172,4.0,7.0,71,0.00,,---,0.27,VWS V14.00,2013-09-19 19:24:00,
2013-09-19 14:25:00,84.2,73.8,29.64,SSE,157,4.0,12.0,71,0.00,,---,0.27,VWS V14.00,2013-09-19 19:25:00,
2013-09-19 14:29:00,84.0,73.2,29.63,SE,132,5.0,5.0,70,0.00,,---,0.27,VWS V14.00,2013-09-19 19:29:00,
2013-09-19 14:30:00,84.0,73.2,29.64,SSE,163,4.0,13.0,70,0.00,,---,0.27,VWS V14.00,2013-09-19 19:30:00,
2013-09-19 14:34:00,84.0,73.6,29.63,SW,218,3.0,4.0,71,0.00,,---,0.27,VWS V14.00,2013-09-19 19:34:00,
2013-09-19 14:35:00,84.0,73.6,29.63,SSW,192,4.0,13.0,71,0.00,,---,0.27,VWS V14.00,2013-09-19 19:35:00,
2013-09-19 14:39:00,84.1,72.8,29.63,SE,146,5.0,6.0,69,0.00,,---,0.27,VWS V14.00,2013-09-19 19:39:00,
2013-09-19 14:40:00,84.1,72.8,29.63,South,190,4.0,10.0,69,0.00,,---,0.27,VWS V14.00,2013-09-19 19:40:00,
2013-09-19 14:44:00,84.1,73.3,29.63,SSE,157,10.0,10.0,70,0.00,,---,0.27,VWS V14.00,2013-09-19 19:44:00,
2013-09-19 14:45:00,84.1,73.3,29.63,SSE,152,10.0,12.0,70,0.00,,---,0.27,VWS V14.00,2013-09-19 19:45:00,
2013-09-19 14:49:00,84.3,73.9,29.62,SSE,160,1.0,1.0,71,0.00,,---,0.27,VWS V14.00,2013-09-19 19:49:00,
2013-09-19 14:50:00,84.2,73.4,29.63,SSE,159,0.0,10.0,70,0.00,,---,0.27,VWS V14.00,2013-09-19 19:50:00,
2013-09-19 14:54:00,84.8,73.5,29.62,SSE,148,5.0,13.0,69,0.00,,---,0.27,VWS V14.00,2013-09-19 19:54:00,
2013-09-19 14:55:00,84.8,73.5,29.62,SSE,148,10.0,12.0,69,0.00,,---,0.27,VWS V14.00,2013-09-19 19:55:00,
2013-09-19 14:59:00,84.6,73.3,29.61,South,169,3.0,5.0,69,0.00,,---,0.27,VWS V14.00,2013-09-19 19:59:00,
2013-09-19 15:00:00,84.6,73.7,29.61,South,179,1.0,13.0,70,0.00,,---,0.27,VWS V14.00,2013-09-19 20:00:00,
2013-09-19 15:04:00,85.0,73.3,29.61,South,173,1.0,5.0,68,0.00,,---,0.27,VWS V14.00,2013-09-19 20:04:00,
2013-09-19 15:05:00,85.0,73.3,29.61,SSE,156,3.0,8.0,68,0.00,,---,0.27,VWS V14.00,2013-09-19 20:05:00,
2013-09-19 15:09:00,85.7,73.0,29.60,ESE,121,7.0,7.0,66,0.00,,---,0.27,VWS V14.00,2013-09-19 20:09:00,
2013-09-19 15:10:00,85.7,73.0,29.61,SW,225,3.0,9.0,66,0.00,,---,0.27,VWS V14.00,2013-09-19 20:10:00,
2013-09-19 15:14:00,86.0,72.9,29.60,South,173,1.0,3.0,65,0.00,,---,0.27,VWS V14.00,2013-09-19 20:14:00,
2013-09-19 15:15:00,86.1,73.0,29.60,SSE,154,2.0,11.0,65,0.00,,---,0.27,VWS V14.00,2013-09-19 20:15:00,
2013-09-19 15:20:00,85.9,72.3,29.60,SE,132,3.0,13.0,64,0.00,,---,0.27,VWS V14.00,2013-09-19 20:20:00,
2013-09-19 15:25:00,85.9,72.8,29.60,SE,138,9.0,10.0,65,0.00,,---,0.27,VWS V14.00,2013-09-19 20:25:00,
2013-09-19 15:30:00,85.9,72.3,29.59,South,169,7.0,9.0,64,0.00,,---,0.27,VWS V14.00,2013-09-19 20:30:00,
2013-09-19 15:35:00,86.2,72.1,29.59,SSE,155,6.0,7.0,63,0.00,,---,0.27,VWS V14.00,2013-09-19 20:35:00,
2013-09-19 15:40:00,86.3,72.2,29.58,South,182,5.0,6.0,63,0.00,,---,0.27,VWS V14.00,2013-09-19 20:40:00,
2013-09-19 15:45:00,86.4,72.8,29.58,South,175,3.0,6.0,64,0.00,,---,0.27,VWS V14.00,2013-09-19 20:45:00,
2013-09-19 15:50:00,86.3,71.8,29.58,SE,146,6.0,12.0,62,0.00,,---,0.27,VWS V14.00,2013-09-19 20:50:00,
2013-09-19 15:55:00,86.5,71.9,29.58,SE,130,7.0,7.0,62,0.00,,---,0.27,VWS V14.00,2013-09-19 20:55:00,
2013-09-19 16:00:00,86.5,72.4,29.57,South,171,3.0,4.0,63,0.00,,---,0.27,VWS V14.00,2013-09-19 21:00:00,
2013-09-19 16:05:00,86.5,71.9,29.58,SSE,161,1.0,13.0,62,0.00,,---,0.27,VWS V14.00,2013-09-19 21:05:00,
2013-09-19 16:10:00,85.9,71.8,29.58,SW,219,5.0,8.0,63,0.00,,---,0.27,VWS V14.00,2013-09-19 21:10:00,
2013-09-19 16:15:00,85.5,71.5,29.58,SW,227,1.0,3.0,63,0.01,,---,0.28,VWS V14.00,2013-09-19 21:15:00,
2013-09-19 16:20:00,85.4,71.4,29.58,SSW,195,1.0,5.0,63,0.01,,---,0.28,VWS V14.00,2013-09-19 21:20:00,
2013-09-19 16:25:00,85.2,71.7,29.58,SSW,198,0.0,4.0,64,0.01,,---,0.28,VWS V14.00,2013-09-19 21:25:00,
2013-09-19 16:30:00,84.9,71.8,29.57,SW,223,0.0,4.0,65,0.01,,---,0.28,VWS V14.00,2013-09-19 21:30:00,
2013-09-19 16:35:00,84.6,72.4,29.57,SSE,165,0.0,0.0,67,0.01,,---,0.28,VWS V14.00,2013-09-19 21:35:00,
2013-09-19 16:40:00,84.3,72.2,29.56,SSW,202,0.0,0.0,67,0.01,,---,0.28,VWS V14.00,2013-09-19 21:40:00,
2013-09-19 16:45:00,84.2,72.5,29.57,South,176,0.0,3.0,68,0.01,,---,0.28,VWS V14.00,2013-09-19 21:45:00,
2013-09-19 16:50:00,84.1,72.0,29.57,SSW,201,0.0,2.0,67,0.01,,---,0.28,VWS V14.00,2013-09-19 21:50:00,
2013-09-19 16:55:00,84.0,71.9,29.61,WNW,294,10.0,10.0,67,0.01,,---,0.28,VWS V14.00,2013-09-19 21:55:00,
2013-09-19 17:00:00,79.5,65.8,29.63,West,277,3.0,16.0,63,0.01,,---,0.28,VWS V14.00,2013-09-19 22:00:00,
2013-09-19 17:05:00,74.7,65.9,29.64,North,5,0.0,7.0,74,0.01,,---,0.28,VWS V14.00,2013-09-19 22:05:00,
2013-09-19 17:10:00,71.6,65.8,29.62,North,355,0.0,5.0,82,0.09,,---,0.36,VWS V14.00,2013-09-19 22:10:00,
2013-09-19 17:15:00,69.9,65.5,29.61,WNW,292,0.0,1.0,86,0.11,,---,0.39,VWS V14.00,2013-09-19 22:15:00,
2013-09-19 17:20:00,69.1,65.1,29.61,WNW,287,0.0,0.0,87,0.14,,---,0.42,VWS V14.00,2013-09-19 22:20:00,
2013-09-19 17:25:00,68.5,65.1,29.62,South,190,0.0,2.0,89,0.14,,---,0.42,VWS V14.00,2013-09-19 22:25:00,
2013-09-19 17:30:00,68.1,65.1,29.62,SW,227,0.0,4.0,90,0.24,,---,0.52,VWS V14.00,2013-09-19 22:30:00,
2013-09-19 17:35:00,67.9,65.2,29.62,South,169,4.0,5.0,91,0.26,,---,0.54,VWS V14.00,2013-09-19 22:35:00,
2013-09-19 17:36:00,67.9,65.5,29.62,SSW,208,1.0,9.0,92,0.28,,---,0.56,VWS V14.00,2013-09-19 22:36:00,
2013-09-19 17:40:00,67.9,65.5,29.61,South,187,0.0,9.0,92,0.36,,---,0.64,VWS V14.00,2013-09-19 22:40:00,
2013-09-19 17:41:00,68.0,65.6,29.61,South,171,0.0,5.0,92,0.37,,---,0.65,VWS V14.00,2013-09-19 22:41:00,
2013-09-19 17:45:00,68.2,66.1,29.60,ESE,120,2.0,6.0,93,0.40,,---,0.68,VWS V14.00,2013-09-19 22:45:00,
2013-09-19 17:46:00,68.3,66.2,29.59,SSE,160,4.0,4.0,93,0.40,,---,0.68,VWS V14.00,2013-09-19 22:46:00,
2013-09-19 17:50:00,68.5,66.4,29.63,SW,214,1.0,4.0,93,0.41,,---,0.69,VWS V14.00,2013-09-19 22:50:00,
2013-09-19 17:51:00,68.5,66.4,29.63,NE,56,1.0,4.0,93,0.42,,---,0.70,VWS V14.00,2013-09-19 22:51:00,
2013-09-19 17:55:00,68.5,66.1,29.63,WSW,255,0.0,13.0,92,0.43,,---,0.71,VWS V14.00,2013-09-19 22:55:00,
2013-09-19 17:56:00,68.5,66.1,29.63,NW,309,2.0,5.0,92,0.43,,---,0.71,VWS V14.00,2013-09-19 22:56:00,
2013-09-19 18:00:00,68.4,66.0,29.62,West,275,4.0,5.0,92,0.43,,---,0.71,VWS V14.00,2013-09-19 23:00:00,
2013-09-19 18:01:00,68.4,65.7,29.63,West,279,0.0,4.0,91,0.43,,---,0.71,VWS V14.00,2013-09-19 23:01:00,
2013-09-19 18:05:00,68.5,65.8,29.63,ENE,72,0.0,4.0,91,0.43,,---,0.71,VWS V14.00,2013-09-19 23:05:00,
2013-09-19 18:06:00,68.5,65.8,29.63,NE,47,0.0,1.0,91,0.43,,---,0.71,VWS V14.00,2013-09-19 23:06:00,
2013-09-19 18:10:00,68.5,65.8,29.63,North,355,0.0,3.0,91,0.43,,---,0.71,VWS V14.00,2013-09-19 23:10:00,
2013-09-19 18:11:00,68.4,66.0,29.62,North,355,1.0,1.0,92,0.37,,---,0.71,VWS V14.00,2013-09-19 23:11:00,
2013-09-19 18:15:00,68.2,65.5,29.63,SSW,213,0.0,1.0,91,0.37,,---,0.71,VWS V14.00,2013-09-19 23:15:00,
2013-09-19 18:16:00,68.2,65.5,29.64,SSW,213,0.0,0.0,91,0.33,,---,0.71,VWS V14.00,2013-09-19 23:16:00,
2013-09-19 18:20:00,68.1,65.7,29.64,SSW,213,0.0,1.0,92,0.33,,---,0.71,VWS V14.00,2013-09-19 23:20:00,
2013-09-19 18:21:00,68.1,65.7,29.64,SSW,213,0.0,0.0,92,0.30,,---,0.71,VWS V14.00,2013-09-19 23:21:00,
2013-09-19 18:25:00,68.0,65.6,29.64,SSW,213,0.0,0.0,92,0.30,,---,0.71,VWS V14.00,2013-09-19 23:25:00,
2013-09-19 18:26:00,67.9,65.5,29.63,SSW,213,0.0,0.0,92,0.29,,---,0.71,VWS V14.00,2013-09-19 23:26:00,
2013-09-19 18:30:00,67.9,65.8,29.63,SW,226,0.0,1.0,93,0.29,,---,0.71,VWS V14.00,2013-09-19 23:30:00,
2013-09-19 18:31:00,67.8,65.7,29.63,SW,226,0.0,0.0,93,0.21,,---,0.71,VWS V14.00,2013-09-19 23:31:00,
2013-09-19 18:35:00,67.7,65.6,29.62,SW,226,0.0,1.0,93,0.21,,---,0.71,VWS V14.00,2013-09-19 23:35:00,
2013-09-19 18:36:00,67.6,65.5,29.63,SW,230,0.0,1.0,93,0.17,,---,0.71,VWS V14.00,2013-09-19 23:36:00,
2013-09-19 18:40:00,67.5,65.4,29.62,NW,313,0.0,4.0,93,0.17,,---,0.71,VWS V14.00,2013-09-19 23:40:00,
2013-09-19 18:41:00,67.4,65.3,29.63,NW,313,0.0,1.0,93,0.07,,---,0.71,VWS V14.00,2013-09-19 23:41:00,
2013-09-19 18:45:00,67.4,65.3,29.64,NW,313,0.0,1.0,93,0.07,,---,0.71,VWS V14.00,2013-09-19 23:45:00,
2013-09-19 18:46:00,67.4,65.6,29.64,NW,313,0.0,1.0,94,0.03,,---,0.71,VWS V14.00,2013-09-19 23:46:00,
2013-09-19 18:50:00,67.4,65.6,29.64,NW,313,0.0,1.0,94,0.04,,---,0.72,VWS V14.00,2013-09-19 23:50:00,
2013-09-19 18:51:00,67.4,65.6,29.64,NW,313,0.0,0.0,94,0.03,,---,0.72,VWS V14.00,2013-09-19 23:51:00,
2013-09-19 18:55:00,67.4,65.6,29.63,NW,313,0.0,1.0,94,0.03,,---,0.72,VWS V14.00,2013-09-19 23:55:00,
2013-09-19 18:56:00,67.4,65.6,29.63,NW,313,0.0,0.0,94,0.01,,---,0.72,VWS V14.00,2013-09-19 23:56:00,
2013-09-19 19:00:00,67.3,65.5,29.63,NW,313,0.0,0.0,94,0.01,,---,0.72,VWS V14.00,2013-09-20 00:00:00,
2013-09-19 19:01:00,67.3,65.5,29.63,NW,313,0.0,0.0,94,0.01,,---,0.72,VWS V14.00,2013-09-20 00:01:00,
2013-09-19 19:05:00,67.2,65.4,29.63,NW,313,0.0,0.0,94,0.01,,---,0.72,VWS V14.00,2013-09-20 00:05:00,
2013-09-19 19:06:00,67.3,65.5,29.62,NW,313,0.0,0.0,94,0.01,,---,0.72,VWS V14.00,2013-09-20 00:06:00,
2013-09-19 19:10:00,67.2,65.4,29.62,NW,313,0.0,0.0,94,0.01,,---,0.72,VWS V14.00,2013-09-20 00:10:00,
2013-09-19 19:11:00,67.2,65.4,29.62,NW,313,0.0,0.0,94,0.01,,---,0.72,VWS V14.00,2013-09-20 00:11:00,
2013-09-19 19:15:00,67.2,65.4,29.62,NW,313,0.0,0.0,94,0.01,,---,0.72,VWS V14.00,2013-09-20 00:15:00,
2013-09-19 19:16:00,67.2,65.4,29.62,NW,313,0.0,0.0,94,0.01,,---,0.72,VWS V14.00,2013-09-20 00:16:00,
2013-09-19 19:20:00,67.2,65.7,29.61,NW,313,0.0,0.0,95,0.01,,---,0.72,VWS V14.00,2013-09-20 00:20:00,
2013-09-19 19:21:00,67.2,65.7,29.61,NW,313,0.0,0.0,95,0.01,,---,0.72,VWS V14.00,2013-09-20 00:21:00,
2013-09-19 19:25:00,67.2,65.7,29.61,NW,313,0.0,0.0,95,0.01,,---,0.72,VWS V14.00,2013-09-20 00:25:00,
2013-09-19 19:26:00,67.3,65.8,29.61,NW,313,0.0,1.0,95,0.01,,---,0.72,VWS V14.00,2013-09-20 00:26:00,
2013-09-19 19:30:00,67.3,65.8,29.61,NW,313,0.0,1.0,95,0.01,,---,0.72,VWS V14.00,2013-09-20 00:30:00,
2013-09-19 19:31:00,67.3,65.8,29.61,NW,313,0.0,0.0,95,0.01,,---,0.72,VWS V14.00,2013-09-20 00:31:00,
2013-09-19 19:35:00,67.3,65.8,29.61,NW,313,0.0,1.0,95,0.01,,---,0.72,VWS V14.00,2013-09-20 00:35:00,
2013-09-19 19:36:00,67.3,65.8,29.61,NW,313,0.0,0.0,95,0.01,,---,0.72,VWS V14.00,2013-09-20 00:36:00,
2013-09-19 19:40:00,67.3,65.8,29.61,NW,313,0.0,0.0,95,0.01,,---,0.72,VWS V14.00,2013-09-20 00:40:00,
2013-09-19 19:41:00,67.3,65.8,29.61,NW,313,0.0,0.0,95,0.01,,---,0.72,VWS V14.00,2013-09-20 00:41:00,
2013-09-19 19:45:00,67.3,65.8,29.61,NW,313,0.0,0.0,95,0.01,,---,0.72,VWS V14.00,2013-09-20 00:45:00,
2013-09-19 19:47:00,67.3,65.8,29.61,NW,313,0.0,0.0,95,0.01,,---,0.72,VWS V14.00,2013-09-20 00:47:00,
2013-09-19 19:50:00,67.3,65.8,29.61,NW,313,0.0,0.0,95,0.01,,---,0.72,VWS V14.00,2013-09-20 00:50:00,
2013-09-19 19:52:00,67.4,65.9,29.62,NW,313,0.0,0.0,95,0.00,,---,0.72,VWS V14.00,2013-09-20 00:52:00,
2013-09-19 19:55:00,67.4,65.9,29.62,NW,313,0.0,0.0,95,0.00,,---,0.72,VWS V14.00,2013-09-20 00:55:00,
2013-09-19 19:57:00,67.4,65.9,29.62,NW,313,0.0,0.0,95,0.00,,---,0.72,VWS V14.00,2013-09-20 00:57:00,
2013-09-19 20:00:00,67.4,65.9,29.62,NW,313,0.0,0.0,95,0.00,,---,0.72,VWS V14.00,2013-09-20 01:00:00,
2013-09-19 20:02:00,67.4,65.9,29.62,NW,313,0.0,0.0,95,0.00,,---,0.72,VWS V14.00,2013-09-20 01:02:00,
2013-09-19 20:05:00,67.4,65.9,29.63,NW,313,3.0,3.0,95,0.00,,---,0.72,VWS V14.00,2013-09-20 01:05:00,
2013-09-19 20:07:00,67.4,65.9,29.64,NW,314,2.0,5.0,95,0.00,,---,0.72,VWS V14.00,2013-09-20 01:07:00,
2013-09-19 20:10:00,67.4,65.9,29.64,NW,314,0.0,5.0,95,0.00,,---,0.72,VWS V14.00,2013-09-20 01:10:00,
2013-09-19 20:12:00,67.4,65.9,29.65,NW,323,1.0,4.0,95,0.00,,---,0.72,VWS V14.00,2013-09-20 01:12:00,
2013-09-19 20:15:00,67.4,65.9,29.65,NW,317,4.0,6.0,95,0.00,,---,0.72,VWS V14.00,2013-09-20 01:15:00,
2013-09-19 20:17:00,67.3,65.8,29.65,NW,325,0.0,5.0,95,0.00,,---,0.72,VWS V14.00,2013-09-20 01:17:00,
2013-09-19 20:20:00,67.3,65.8,29.66,NW,317,0.0,5.0,95,0.00,,---,0.72,VWS V14.00,2013-09-20 01:20:00,
2013-09-19 20:22:00,67.3,65.8,29.65,NW,326,0.0,3.0,95,0.00,,---,0.72,VWS V14.00,2013-09-20 01:22:00,
2013-09-19 20:25:00,67.3,65.8,29.65,NW,326,0.0,3.0,95,0.00,,---,0.72,VWS V14.00,2013-09-20 01:25:00,
2013-09-19 20:27:00,67.3,65.8,29.67,SSW,194,1.0,4.0,95,0.00,,---,0.72,VWS V14.00,2013-09-20 01:27:00,
2013-09-19 20:30:00,67.3,65.8,29.68,SSE,157,5.0,7.0,95,0.00,,---,0.72,VWS V14.00,2013-09-20 01:30:00,
2013-09-19 20:32:00,67.4,65.9,29.69,SSE,160,0.0,5.0,95,0.00,,---,0.72,VWS V14.00,2013-09-20 01:32:00,
2013-09-19 20:35:00,67.4,65.9,29.69,SSE,160,0.0,5.0,95,0.00,,---,0.72,VWS V14.00,2013-09-20 01:35:00,
2013-09-19 20:37:00,67.4,65.9,29.69,ESE,119,1.0,1.0,95,0.03,,---,0.75,VWS V14.00,2013-09-20 01:37:00,
2013-09-19 20:40:00,67.3,65.8,29.65,NNW,342,3.0,5.0,95,0.08,,---,0.80,VWS V14.00,2013-09-20 01:40:00,
2013-09-19 20:42:00,67.3,65.8,29.66,NW,311,0.0,4.0,95,0.11,,---,0.83,VWS V14.00,2013-09-20 01:42:00,
2013-09-19 20:45:00,67.2,66.0,29.66,NW,311,0.0,4.0,96,0.12,,---,0.84,VWS V14.00,2013-09-20 01:45:00,
2013-09-19 20:47:00,67.3,66.1,29.65,NW,311,0.0,0.0,96,0.12,,---,0.84,VWS V14.00,2013-09-20 01:47:00,
2013-09-19 20:50:00,67.2,66.0,29.65,NW,311,0.0,0.0,96,0.12,,---,0.84,VWS V14.00,2013-09-20 01:50:00,
2013-09-19 20:52:00,67.3,66.1,29.64,NW,310,0.0,0.0,96,0.12,,---,0.84,VWS V14.00,2013-09-20 01:52:00,
2013-09-19 20:55:00,67.3,66.1,29.64,NW,310,0.0,0.0,96,0.12,,---,0.84,VWS V14.00,2013-09-20 01:55:00,
2013-09-19 20:57:00,67.3,66.1,29.65,NW,311,0.0,1.0,96,0.12,,---,0.84,VWS V14.00,2013-09-20 01:57:00,
2013-09-19 21:00:00,67.4,66.2,29.65,NW,309,0.0,1.0,96,0.12,,---,0.84,VWS V14.00,2013-09-20 02:00:00,
2013-09-19 21:02:00,67.4,66.2,29.66,WNW,295,0.0,1.0,96,0.13,,---,0.85,VWS V14.00,2013-09-20 02:02:00,
2013-09-19 21:05:00,67.5,66.3,29.66,WNW,296,0.0,1.0,96,0.14,,---,0.86,VWS V14.00,2013-09-20 02:05:00,
2013-09-19 21:07:00,67.4,66.2,29.65,WNW,295,0.0,1.0,96,0.14,,---,0.86,VWS V14.00,2013-09-20 02:07:00,
2013-09-19 21:10:00,67.4,66.2,29.65,WNW,296,0.0,1.0,96,0.15,,---,0.87,VWS V14.00,2013-09-20 02:10:00,
2013-09-19 21:12:00,67.4,66.2,29.65,WNW,296,0.0,0.0,96,0.15,,---,0.87,VWS V14.00,2013-09-20 02:12:00,
2013-09-19 21:15:00,67.4,66.2,29.65,WNW,295,0.0,0.0,96,0.15,,---,0.87,VWS V14.00,2013-09-20 02:15:00,
2013-09-19 21:17:00,67.4,66.2,29.66,WNW,295,1.0,1.0,96,0.15,,---,0.87,VWS V14.00,2013-09-20 02:17:00,
2013-09-19 21:20:00,67.4,66.2,29.66,WNW,296,0.0,1.0,96,0.15,,---,0.87,VWS V14.00,2013-09-20 02:20:00,
2013-09-19 21:22:00,67.4,66.2,29.66,WNW,295,0.0,1.0,96,0.16,,---,0.88,VWS V14.00,2013-09-20 02:22:00,
2013-09-19 21:25:00,67.4,66.2,29.66,WNW,296,0.0,1.0,96,0.16,,---,0.88,VWS V14.00,2013-09-20 02:25:00,
2013-09-19 21:27:00,67.4,66.2,29.65,WNW,295,0.0,0.0,96,0.16,,---,0.88,VWS V14.00,2013-09-20 02:27:00,
2013-09-19 21:30:00,67.4,66.2,29.65,WNW,295,0.0,0.0,96,0.17,,---,0.89,VWS V14.00,2013-09-20 02:30:00,
2013-09-19 21:32:00,67.3,66.1,29.64,WNW,296,0.0,0.0,96,0.17,,---,0.89,VWS V14.00,2013-09-20 02:32:00,
2013-09-19 21:35:00,67.3,66.1,29.64,WNW,295,0.0,0.0,96,0.17,,---,0.89,VWS V14.00,2013-09-20 02:35:00,
2013-09-19 21:37:00,67.2,66.0,29.63,WNW,296,0.0,0.0,96,0.18,,---,0.90,VWS V14.00,2013-09-20 02:37:00,
2013-09-19 21:40:00,67.2,66.0,29.63,WNW,296,0.0,0.0,96,0.18,,---,0.90,VWS V14.00,2013-09-20 02:40:00,
2013-09-19 21:42:00,67.2,66.0,29.63,WNW,296,0.0,0.0,96,0.11,,---,0.91,VWS V14.00,2013-09-20 02:42:00,
2013-09-19 21:45:00,67.2,66.0,29.62,WNW,296,0.0,1.0,96,0.11,,---,0.91,VWS V14.00,2013-09-20 02:45:00,
2013-09-19 21:48:00,67.1,65.9,29.63,WNW,296,0.0,0.0,96,0.07,,---,0.91,VWS V14.00,2013-09-20 02:48:00,
2013-09-19 21:50:00,67.1,65.9,29.62,WNW,296,1.0,1.0,96,0.07,,---,0.91,VWS V14.00,2013-09-20 02:50:00,
2013-09-19 21:53:00,67.1,65.9,29.62,WNW,295,0.0,1.0,96,0.08,,---,0.92,VWS V14.00,2013-09-20 02:53:00,
2013-09-19 21:55:00,67.1,65.9,29.62,WNW,295,0.0,1.0,96,0.08,,---,0.92,VWS V14.00,2013-09-20 02:55:00,
2013-09-19 21:58:00,67.1,65.9,29.61,WNW,295,0.0,1.0,96,0.08,,---,0.92,VWS V14.00,2013-09-20 02:58:00,
2013-09-19 22:00:00,67.1,65.9,29.61,WNW,296,0.0,1.0,96,0.08,,---,0.92,VWS V14.00,2013-09-20 03:00:00,
2013-09-19 22:03:00,67.1,65.9,29.60,NNW,339,0.0,3.0,96,0.08,,---,0.92,VWS V14.00,2013-09-20 03:03:00,
2013-09-19 22:05:00,67.0,65.8,29.60,NNW,339,0.0,3.0,96,0.08,,---,0.92,VWS V14.00,2013-09-20 03:05:00,
2013-09-19 22:08:00,67.0,65.8,29.61,NNW,339,0.0,0.0,96,0.06,,---,0.92,VWS V14.00,2013-09-20 03:08:00,
2013-09-19 22:10:00,67.0,65.8,29.61,NNW,338,0.0,0.0,96,0.06,,---,0.92,VWS V14.00,2013-09-20 03:10:00,
2013-09-19 22:13:00,67.0,65.8,29.62,NNW,339,0.0,1.0,96,0.05,,---,0.92,VWS V14.00,2013-09-20 03:13:00,
2013-09-19 22:15:00,67.0,65.8,29.62,NNW,338,0.0,1.0,96,0.05,,---,0.92,VWS V14.00,2013-09-20 03:15:00,
2013-09-19 22:18:00,67.1,65.9,29.62,NNW,339,0.0,0.0,96,0.05,,---,0.92,VWS V14.00,2013-09-20 03:18:00,
2013-09-19 22:20:00,67.1,65.9,29.62,NNW,339,0.0,1.0,96,0.05,,---,0.92,VWS V14.00,2013-09-20 03:20:00,
2013-09-19 22:23:00,67.1,65.9,29.61,NNW,339,0.0,0.0,96,0.05,,---,0.92,VWS V14.00,2013-09-20 03:23:00,
2013-09-19 22:25:00,67.1,65.9,29.61,NNW,339,0.0,0.0,96,0.05,,---,0.92,VWS V14.00,2013-09-20 03:25:00,
2013-09-19 22:28:00,67.0,66.1,29.62,NNW,338,0.0,1.0,97,0.04,,---,0.92,VWS V14.00,2013-09-20 03:28:00,
2013-09-19 22:30:00,67.0,65.8,29.62,NW,321,0.0,1.0,96,0.04,,---,0.92,VWS V14.00,2013-09-20 03:30:00,
2013-09-19 22:33:00,67.0,66.1,29.64,West,280,0.0,2.0,97,0.03,,---,0.92,VWS V14.00,2013-09-20 03:33:00,
2013-09-19 22:35:00,67.1,66.2,29.64,WSW,255,0.0,3.0,97,0.03,,---,0.92,VWS V14.00,2013-09-20 03:35:00,
2013-09-19 22:38:00,67.1,66.2,29.65,WSW,238,0.0,2.0,97,0.03,,---,0.92,VWS V14.00,2013-09-20 03:38:00,
2013-09-19 22:40:00,67.1,66.2,29.65,WSW,238,0.0,2.0,97,0.03,,---,0.92,VWS V14.00,2013-09-20 03:40:00,
2013-09-19 22:43:00,67.0,66.1,29.65,WSW,238,0.0,0.0,97,0.02,,---,0.92,VWS V14.00,2013-09-20 03:43:00,
2013-09-19 22:45:00,67.0,66.1,29.64,WSW,238,0.0,0.0,97,0.02,,---,0.92,VWS V14.00,2013-09-20 03:45:00,
2013-09-19 22:48:00,67.0,65.8,29.65,WSW,238,0.0,0.0,96,0.01,,---,0.92,VWS V14.00,2013-09-20 03:48:00,
2013-09-19 22:50:00,67.0,65.8,29.65,WSW,238,0.0,0.0,96,0.01,,---,0.92,VWS V14.00,2013-09-20 03:50:00,
2013-09-19 22:53:00,66.9,65.7,29.66,WSW,238,0.0,0.0,96,0.01,,---,0.92,VWS V14.00,2013-09-20 03:53:00,
2013-09-19 22:55:00,66.9,65.7,29.66,WSW,238,0.0,0.0,96,0.01,,---,0.92,VWS V14.00,2013-09-20 03:55:00,
2013-09-19 22:58:00,66.9,65.7,29.66,WSW,238,0.0,0.0,96,0.00,,---,0.92,VWS V14.00,2013-09-20 03:58:00,
2013-09-19 23:00:00,66.9,65.7,29.66,WSW,238,0.0,0.0,96,0.00,,---,0.92,VWS V14.00,2013-09-20 04:00:00,
2013-09-19 23:01:00,66.9,65.7,29.66,WSW,238,0.0,0.0,96,0.00,,---,0.92,VWS V14.00,2013-09-20 04:01:00,
2013-09-19 23:02:00,66.9,65.7,29.66,WSW,238,0.0,1.0,96,0.00,,---,0.92,VWS V14.00,2013-09-20 04:02:00,
2013-09-19 23:05:00,66.9,65.7,29.66,WSW,238,0.0,1.0,96,0.00,,---,0.92,VWS V14.00,2013-09-20 04:05:00,
2013-09-19 23:07:00,66.8,65.6,29.66,WSW,238,0.0,0.0,96,0.00,,---,0.92,VWS V14.00,2013-09-20 04:07:00,
2013-09-19 23:10:00,66.9,65.7,29.66,WSW,238,0.0,0.0,96,0.00,,---,0.92,VWS V14.00,2013-09-20 04:10:00,
2013-09-19 23:12:00,66.8,65.6,29.65,WSW,238,0.0,0.0,96,0.00,,---,0.92,VWS V14.00,2013-09-20 04:12:00,
2013-09-19 23:15:00,66.8,65.6,29.65,WSW,238,0.0,0.0,96,0.00,,---,0.92,VWS V14.00,2013-09-20 04:15:00,
2013-09-19 23:17:00,66.8,65.6,29.65,WSW,238,0.0,0.0,96,0.00,,---,0.92,VWS V14.00,2013-09-20 04:17:00,
2013-09-19 23:20:00,66.9,65.7,29.65,WSW,238,0.0,0.0,96,0.00,,---,0.92,VWS V14.00,2013-09-20 04:20:00,
2013-09-19 23:23:00,66.9,66.0,29.65,WSW,238,0.0,1.0,97,0.00,,---,0.92,VWS V14.00,2013-09-20 04:23:00,
2013-09-19 23:25:00,66.9,66.0,29.64,WSW,238,0.0,1.0,97,0.00,,---,0.92,VWS V14.00,2013-09-20 04:25:00,
2013-09-19 23:28:00,66.8,65.9,29.64,WSW,238,0.0,0.0,97,0.00,,---,0.92,VWS V14.00,2013-09-20 04:28:00,
2013-09-19 23:30:00,66.8,65.9,29.64,WSW,238,0.0,0.0,97,0.00,,---,0.92,VWS V14.00,2013-09-20 04:30:00,
2013-09-19 23:33:00,66.8,65.9,29.64,WSW,238,0.0,0.0,97,0.00,,---,0.92,VWS V14.00,2013-09-20 04:33:00,
2013-09-19 23:35:00,66.8,65.6,29.63,WSW,238,0.0,0.0,96,0.00,,---,0.92,VWS V14.00,2013-09-20 04:35:00,
2013-09-19 23:38:00,66.8,65.9,29.63,WSW,238,0.0,0.0,97,0.00,,---,0.92,VWS V14.00,2013-09-20 04:38:00,
2013-09-19 23:40:00,66.7,65.8,29.63,WSW,238,0.0,0.0,97,0.00,,---,0.92,VWS V14.00,2013-09-20 04:40:00,
2013-09-19 23:43:00,66.7,65.8,29.63,WSW,238,0.0,0.0,97,0.00,,---,0.92,VWS V14.00,2013-09-20 04:43:00,
2013-09-19 23:45:00,66.7,65.8,29.63,WSW,238,0.0,0.0,97,0.00,,---,0.92,VWS V14.00,2013-09-20 04:45:00,
2013-09-19 23:48:00,66.7,65.8,29.64,WSW,238,0.0,0.0,97,0.00,,---,0.92,VWS V14.00,2013-09-20 04:48:00,
2013-09-19 23:50:00,66.7,65.8,29.64,WSW,238,0.0,0.0,97,0.00,,---,0.92,VWS V14.00,2013-09-20 04:50:00,
2013-09-19 23:53:00,66.7,65.8,29.64,WSW,238,0.0,1.0,97,0.00,,---,0.92,VWS V14.00,2013-09-20 04:53:00,
2013-09-19 23:55:00,66.7,65.8,29.64,WSW,238,0.0,1.0,97,0.00,,---,0.92,VWS V14.00,2013-09-20 04:55:00,
2013-09-19 23:58:00,66.7,65.8,29.65,WSW,238,0.0,0.0,97,0.00,,---,0.92,VWS V14.00,2013-09-20 04:58:00,